Powrót do katalogu

CZ-4C DEB

AktywnySSO
NORAD 38657·DEBRIS·🇨🇳 China

Wystrzelony Dec 15, 2009 z Taiyuan Satellite Launch Center

Loading…

Następne Przeloty (najbliższe 24 godziny)

TLE

ŚwieżeSource: Space-Track

Epoka: Sep 12, 2026, 11:34 UTC

1 38657U 09072E   26255.48195812  .00000101  00000-0  32955-3 0  9994
2 38657 100.2644 344.3176 0133373 200.2223 224.6936 13.23068640804059

Śledź CZ-4C DEB w czasie rzeczywistym z AllMySat

Download on the App Store